Home > Weather > Lindau (Bodensee) > Past weeks

Flag for Germany Weather for the Past 2 Weeks in Lindau (Bodensee), Bavaria, Germany

Now
40 °F

Chilly.


Feels Like: 35 °F
Forecast: 30 / 43 °F
Wind: 6 mph from South

Location: Bregenz

Current Time: Feb 10, 2016 at 7:57:02 PM

Latest Report: Feb 10, 2016 at 7:00 PM


Visibility: N/A

Pressure: 29.71 "Hg

Humidity: 57%

Dew point: 25 °F

Location of Lindau (Bodensee)Location

Historic Weather in Lindau (Bodensee) — Graph

°F

Lindau (Bodensee) Temperature Yesterday

Maximum temperature yesterday: 58 °F (at 2:00 PM)
Minimum temperature yesterday: 42 °F (at 11:00 PM)
Average temperature yesterday: 50 °F

High & Low Weather Summary for the Past Weeks

 TemperatureHumidityPressure
High59 °F (Feb 1, 3:00 PM)100% (Feb 6, 8:00 AM)30.51 "Hg (Feb 6, 8:00 AM)
Low33 °F (Feb 3, 10:00 AM)35% (Feb 7, 7:00 AM)29.26 "Hg (Feb 9, 7:00 PM)
Average45 °F77%30.11 "Hg
* Reported Jan 26 6:00 PM — Feb 10 6:00 PM, Lindau (Bodensee), Weather by CustomWeather, © 2016

Note: Actual official high and low records may vary slightly from our data, if they occured in-between our weather recording intervals... More about our weather records

Advertising

Lindau (Bodensee) Weather History for the Previous 24 Hours

 ConditionsComfort  
Time TempWeatherWind HumidityBarometerVisibility
6:00 PM
Wed, Feb 10
40 °FChilly.5 mph54%29.68 "HgN/A
5:00 PM39 °FChilly.3 mph60%29.66 "HgN/A
4:00 PM39 °FChilly.1 mph63%29.65 "HgN/A
3:00 PM38 °FChilly.3 mph66%29.64 "HgN/A
2:00 PM39 °FChilly.2 mph62%29.64 "HgN/A
1:00 PM40 °FOvercast.2 mph57%29.62 "Hg9 mi
12:00 PM40 °FChilly.3 mph57%29.64 "HgN/A
11:00 AM38 °FChilly.2 mph65%29.64 "HgN/A
10:00 AM38 °FOvercast.2 mph74%29.63 "Hg9 mi
9:00 AM36 °FChilly.2 mph78%29.60 "HgN/A
8:00 AM37 °FChilly.3 mph76%29.57 "HgN/A
7:00 AM37 °FOvercast.3 mph74%29.54 "Hg12 mi
6:00 AM38 °FChilly.2 mph66%29.53 "HgN/A
5:00 AM39 °FChilly.2 mph57%29.50 "HgN/A
4:00 AM37 °FChilly.1 mph77%29.50 "HgN/A
3:00 AM40 °FChilly.5 mph60%29.47 "HgN/A
1:00 AM39 °FChilly.2 mph72%29.50 "HgN/A
12:00 AM41 °FQuite cool.2 mph72%29.47 "HgN/A
11:00 PM
Tue, Feb 9
42 °FQuite cool.2 mph69%29.41 "HgN/A
10:00 PM43 °FQuite cool.7 mph70%29.44 "HgN/A
9:00 PM43 °FQuite cool.5 mph78%29.47 "HgN/A
8:00 PM54 °FCool.2 mph47%29.26 "HgN/A
7:00 PM54 °FCool.2 mph46%29.26 "HgN/A
Weather by CustomWeather, © 2016

See weather overviewHow to use our weather pages